Location: Rougeou
(47.3630°N, 1.5363°E)
Time: 02:40:29
(UTC+00:00)

Daily predictions for brighter satellites

Satellite Brightness Start Highest point End
(mag) Time Altitude Azimuth Time Altitude Azimuth Time Altitude Azimuth
Cosmos 2297 Rocket 3.5 00:04:16 10° NNW 00:09:29 36° NE 00:14:39 10° ESE
Cosmos 1782 3.2 00:07:37 10° N 00:11:11 46° ENE 00:11:51 40° ESE
NOSS 3-4 (A) 4.4 00:06:03 10° NW 00:12:35 43° WSW 00:15:34 31° SSW
NOSS 3-4 (C) 4.4 00:06:08 10° NW 00:12:40 43° WSW 00:15:40 31° SSW
SL-08 ROCKET BODY 4.3 00:11:57 37° S 00:14:34 87° W 00:20:34 10° N
BREEZE-M DEB (TANK) 3.8 00:11:45 10° W 00:15:48 80° N 00:31:28 10° E
Cosmos 1975 Rocket 4.4 00:14:30 23° WSW 00:16:09 30° WNW 00:20:00 10° N
Cosmos 1818 4.0 00:12:43 10° NW 00:17:55 45° WSW 00:19:10 38° SSW
Cosmos 2058 2.9 00:18:00 52° SE 00:18:38 61° E 00:22:33 10° NNE
Cosmos 44 2.9 00:19:22 49° SW 00:20:31 89° NW 00:24:56 10° NE
Cosmos 2228 4.0 00:21:30 10° NNW 00:25:11 31° W 00:25:54 29° WSW
Cosmos 1680 Rocket 3.5 00:25:25 10° NNW 00:30:42 79° ENE 00:33:13 32° SSE
RESURS DK-1 3.6 00:28:37 10° NNW 00:32:21 37° NE 00:34:57 17° ESE
Cosmos 1697 Rocket 4.3 00:32:50 17° SE 00:35:07 22° E 00:39:20 10° NE
H-2A R/B 2.9 00:34:14 33° ESE 00:35:27 47° ENE 00:39:06 10° N
Cosmos 1656 3.9 00:33:45 36° S 00:35:49 57° ESE 00:41:17 10° NE
SeaSat 1 4.0 00:33:23 10° ESE 00:37:44 33° NE 00:42:07 10° NNW
Cosmos 923 Rocket 4.0 00:32:57 10° NNW 00:38:07 68° WSW 00:39:56 40° S
Cosmos 2227 Rocket 3.9 00:35:53 10° NNW 00:40:54 31° NE 00:45:53 10° ESE
Cosmos 1400 Rocket 3.3 00:39:28 10° NNW 00:43:07 42° W 00:43:29 40° WSW
BlueWalker 3 3.7 00:41:52 10° WNW 00:45:13 32° N 00:48:32 10° ENE
Cosmos 1356 Rocket 4.4 00:41:53 10° N 00:45:37 38° ENE 00:47:28 24° SE
Cosmos 1602 3.6 00:46:12 50° ESE 00:46:24 51° E 00:49:33 10° NNE
EO 1 Delta rocket 4.5 00:46:45 33° SW 00:48:01 40° W 00:52:24 10° NNW
Cosmos 1937 Rocket 3.7 00:47:15 33° SW 00:49:28 63° WNW 00:54:34 10° NNE
ISS -2.3 00:50:04 10° WNW 00:53:14 39° N 00:56:26 10° ENE
H-2A R/B 4.4 00:53:36 10° ENE 00:55:50 14° E 00:58:04 10° ESE
Cosmos 2315 Rocket 4.0 00:51:32 10° NNW 00:57:55 76° W 01:01:14 30° S
Cosmos 1441 Rocket 4.0 00:58:03 32° SE 00:58:49 36° E 01:02:04 10° NNE
Landsat 4 3.0 01:03:33 71° E 01:03:37 71° ENE 01:06:27 10° N
Cosmos 1933 3.1 01:02:03 10° N 01:05:57 90° ENE 01:07:02 46° S
DELTA 2 R/B (1) 4.4 01:07:24 29° SSE 01:07:31 29° SSE 01:12:15 10° ESE
DNEPR-1 R/B 3.9 01:07:45 10° NW 01:11:43 40° WSW 01:12:14 38° SW
Meteor 2-3 Rocket 3.9 01:10:11 29° S 01:13:14 73° E 01:19:02 10° NNE
CZ-2C R/B 2.8 01:11:03 32° SSW 01:13:30 61° W 01:19:01 10° NNW
Cosmos 1606 Rocket 4.4 01:18:09 10° NNW 01:22:06 35° W 01:23:12 30° WSW
Cosmos 1048 Rocket 4.2 01:17:08 10° NNW 01:22:32 76° ENE 01:26:52 16° SSE
Cosmos 2058 Rocket 3.0 01:18:54 10° N 01:23:20 88° E 01:25:27 31° S
Cosmos 1315 Rocket 2.7 01:19:45 10° N 01:23:34 79° E 01:25:07 34° SSE
Cosmos 1655 Rocket 4.2 01:20:19 28° SSW 01:23:49 65° WNW 01:30:12 10° N
IDEFIX/ARIANE 42P 2.8 01:24:08 10° NNE 01:29:18 61° ESE 01:32:15 25° S
Lacrosse 5 rocket 3.9 01:31:26 10° NW 01:34:32 22° N 01:37:38 10° ENE
CZ-2C R/B 3.5 01:32:08 10° N 01:36:46 44° WNW 01:39:09 25° SW
Cosmos 2360 4.3 01:36:32 26° SW 01:39:50 71° WNW 01:45:33 10° NNE
Meteor 1-26 Rocket 4.1 01:35:10 10° N 01:40:37 86° E 01:44:35 19° SSE
CZ-4C R/B 3.6 01:37:25 10° W 01:41:35 30° NNW 01:46:45 10° NNE
Cosmos 1867 4.4 01:40:43 17° WSW 01:44:43 46° NW 01:49:59 10° NNE
ADEOS II 3.8 01:41:00 10° NE 01:45:17 25° E 01:49:33 10° SSE
Cosmos 2263 Rocket 3.2 01:41:25 10° NNW 01:46:54 47° NE 01:52:17 10° SE
Gbstr 26 Del rocket 4.2 01:44:45 10° WNW 01:51:02 83° NNE 01:58:32 10° ESE
Cosmos 2297 Rocket 2.6 01:48:17 10° NW 01:53:36 43° WSW 01:56:44 22° SSW
CZ-2D R/B 3.0 01:51:49 10° NNE 01:56:49 42° E 02:01:07 13° SSE
MOZ.5/SAFIR/RUBIN 5/SL-8 3.7 01:56:35 19° S 01:59:49 76° WSW 02:04:29 10° NNW
BREEZE-M DEB (TANK) 1.3 01:59:35 10° WNW 02:02:11 71° SSW 02:04:24 10° ESE
Meteor 2-6 Rocket 4.4 02:01:01 10° N 02:06:43 77° ENE 02:12:33 10° SSE
Cosmos 1758 Rocket 3.5 02:05:25 23° S 02:08:06 86° W 02:12:32 10° N
Cosmos 1602 Rocket 3.8 02:05:12 19° S 02:08:12 66° E 02:12:29 10° NNE
Cosmos 1980 Rocket 2.7 02:05:14 18° S 02:09:18 53° ESE 02:14:45 10° NE
RESURS DK-1 3.5 02:06:28 10° NW 02:09:38 23° WSW 02:10:15 22° WSW
H-2A R/B 4.1 02:09:35 14° W 02:10:04 15° W 02:12:13 10° NW
Tiangong -0.5 02:10:35 20° SSE 02:10:37 20° SSE 02:13:08 10° ESE
Resurs 1-4 Rocket 2.5 02:05:53 10° NNE 02:11:09 61° ESE 02:15:34 15° S
Nadezhda 1 Rocket 4.0 02:06:54 10° N 02:13:14 82° W 02:19:10 11° S
Cosmos 1626 Rocket 3.7 02:12:06 23° SSW 02:14:39 59° WNW 02:18:58 10° N
SeaSat 1 2.8 02:11:34 17° S 02:15:01 43° WSW 02:19:42 10° NW
Cosmos 1745 Rocket 4.1 02:12:25 16° S 02:17:40 89° ESE 02:24:05 10° N
Cosmos 1697 Rocket 2.9 02:14:32 20° SW 02:18:33 66° WNW 02:24:13 10° NNE
NOSS 7 (A) 4.5 02:15:43 10° NW 02:18:35 64° SW 02:21:49 10° SSE
H-2A R/B 4.3 02:16:45 10° NE 02:20:03 17° E 02:23:18 10° SE
Cosmos 614 Rocket 3.9 02:18:03 10° NNW 02:23:08 88° WSW 02:28:12 10° SSE
BlueWalker 3 2.2 02:19:41 10° WNW 02:23:20 65° NNE 02:26:58 10° ESE
FENGYUN 3A 3.7 02:18:19 10° NNE 02:23:43 78° WNW 02:27:58 17° SSW
Cosmos 2227 Rocket 2.4 02:19:42 10° NW 02:25:12 52° WSW 02:30:40 10° S
MSX 4.2 02:21:27 10° N 02:27:01 53° WNW 02:31:23 16° SW
Cosmos-2242 4.1 02:23:52 10° NNW 02:27:24 27° W 02:29:26 18° SW
ISS -3.8 02:26:50 10° WNW 02:30:12 87° SSW 02:33:34 10° ESE
Okean 1 3.2 02:27:50 10° NNW 02:31:32 60° W 02:34:27 15° S
H-2A R/B 2.1 02:27:30 10° N 02:31:36 62° WNW 02:34:41 18° SSW
Cosmos 1709 Rocket 4.1 02:25:56 12° S 02:31:59 84° E 02:38:22 10° N
Cosmos 1932 4.5 02:31:45 16° SW 02:36:50 89° ESE 02:43:15 10° NE
ATLAS 2AS CENTAUR R/B 2.9 02:30:57 10° NW 02:37:46 75° NE 02:44:28 10° SE
USA 290 2.6 02:35:28 10° NNW 02:38:45 66° ENE 02:42:01 10° SSE
Okean 1-7 Rocket 3.6 02:35:08 15° SSW 02:38:47 78° W 02:43:17 10° N
SAR-Lupe-3 4.5 02:36:10 10° SSE 02:39:04 62° ENE 02:41:59 10° N
NPP 4.4 02:38:16 10° N 02:43:18 41° WNW 02:47:39 13° SW
ALOS 2.3 02:39:54 10° NNE 02:44:30 77° ESE 02:49:03 10° S
Cosmos 2221 2.6 02:44:03 10° NNW 02:48:14 55° W 02:52:22 10° S
Cosmos 1743 3.2 02:45:59 10° S 02:49:12 47° E 02:52:28 10° NNE
Cosmos 1125 Rocket 4.1 02:46:24 14° SW 02:50:45 47° WNW 02:55:51 10° NNE
Cosmos 192 4.4 02:46:47 14° SSW 02:51:04 77° WNW 02:56:01 10° NNE
DELTA 2 R/B (1) 4.2 02:48:05 10° WSW 02:53:11 38° S 02:58:18 10° ESE
Cosmos 2298 Rocket 4.1 02:48:25 11° SSW 02:53:29 82° ESE 02:58:49 10° NNE
Cosmos 2151 3.1 02:51:45 13° SSW 02:55:26 59° WNW 02:59:33 10° N
Cosmos 1953 Rocket 3.8 02:57:49 10° S 03:02:10 70° E 03:06:31 10° NNE
Cosmos 2322 Rocket 4.4 02:59:42 10° SSE 03:03:44 20° E 03:07:47 10° NE
Cosmos 2369 3.7 03:01:08 10° SSW 03:06:48 90° ESE 03:12:30 10° NNE
Meteor 1-19 Rocket 4.2 03:01:35 10° NNW 03:07:00 71° W 03:12:30 10° S
IDEFIX/ARIANE 42P 4.1 03:04:25 10° N 03:08:20 22° WNW 03:12:13 10° WSW
Cosmos 2333 Rocket 4.2 03:04:20 10° SSE 03:08:46 24° ESE 03:13:11 10° NE
Lacrosse 5 rocket 2.2 03:08:47 10° NW 03:12:39 50° NNE 03:16:26 10° ESE
Meteor 1-20 Rocket 4.4 03:09:08 10° SSW 03:14:58 75° WNW 03:20:48 10° N
Cosmos 2082 3.7 03:09:35 10° NNW 03:15:14 64° WSW 03:20:47 10° SSE
Meteor 1-28 Rocket 3.2 03:11:57 10° SSE 03:15:18 70° ENE 03:18:40 10° N
USA 234 3.9 03:10:42 10° ENE 03:16:59 48° SE 03:23:15 10° SSW
Cosmos 1707 3.2 03:17:18 10° N 03:20:32 51° ENE 03:23:43 10° SSE
Cosmos 921 Rocket 3.4 03:19:22 10° NNW 03:23:36 45° WSW 03:27:45 10° S
Cosmos 2219 3.6 03:18:21 10° NW 03:23:41 42° WSW 03:28:57 10° S
CZ-3 R/B 4.3 02:52:12 10° WSW 03:24:48 39° SSW 03:35:00 10° SE
ADEOS II 2.5 03:20:03 10° N 03:25:06 49° WNW 03:30:07 10° SW
Cosmos 1733 2.7 03:23:49 10° S 03:26:47 74° E 03:29:47 10° NNE
Cosmos 1825 Rocket 4.2 03:23:09 10° SW 03:27:11 38° WNW 03:31:16 10° N
Envisat 3.3 03:22:15 10° N 03:27:13 55° WNW 03:32:07 10° SSW
SL-16 R/B 2.9 03:22:44 10° S 03:28:11 52° ESE 03:33:41 10° NE
Cosmos 1238 Rocket 4.4 03:23:47 10° NNW 03:28:25 32° W 03:32:57 10° SSW
SL-16 R/B 2.6 03:23:45 10° S 03:29:57 68° WSW 03:36:14 10° NNW
Cosmos 2263 Rocket 3.0 03:25:41 10° NW 03:30:35 31° WSW 03:35:27 10° SSW
